CAPE
0 0 0 0 0 0 0 0 0 0 0 0 0 0 0 0 0 0 0 0 0 0 0 0 0 0 0 0 0 0 0 0 0 0 0 0 0 0 0 45 295 426 531 463 341
0 0 0 0 0 0 0 0 0 0 0 0 0 0 0 0 0 0 0 0 0 0 0 0 0 0 0 0 0 0 0 0 0 0 0 0 0 0 0 4 274 546 774 370 490
0 0 0 0 0 0 0 0 0 0 0 0 0 0 0 0 0 0 0 0 0 0 0 0 0 0 0 0 0 0 0 0 0 0 0 0 0 0 0 0 0 50 595 407 635
0 0 0 0 0 0 0 0 0 0 0 0 0 0 0 0 0 0 0 0 0 0 0 0 0 0 0 0 0 0 0 0 0 0 0 0 0 0 0 0 0 331 654 518 627
0 0 0 0 0 0 0 0 0 0 0 0 0 0 0 0 0 0 0 0 0 0 0 0 0 0 0 0 0 0 0 0 0 0 0 0 0 0 0 0 0 373 938 810 681
0 0 0 0 0 0 0 0 0 0 0 0 0 0 0 0 0 0 0 0 0 0 0 0 0 0 0 0 0 0 0 0 0 0 0 0 0 0 0 0 0 117 634 1011 897
0 0 0 0 0 0 0 0 0 0 0 0 0 1 0 0 0 0 0 0 0 0 0 0 0 0 0 0 0 0 0 0 0 0 0 0 0 0 0 0 0 0 237 819 964
0 0 0 0 0 0 0 0 0 0 0 0 0 0 0 0 0 0 0 0 0 0 0 0 0 0 0 0 0 0 0 0 0 0 0 0 0 0 0 0 0 0 0 396 771
0 0 0 0 0 0 0 0 0 0 0 0 0 0 0 0 0 0 0 0 0 0 0 0 0 0 0 0 0 0 0 0 0 0 0 0 0 0 0 0 0 0 0 0 134
0 0 0 0 0 0 0 0 0 0 0 1 0 0 0 0 0 0 0 0 0 0 0 0 0 0 0 0 0 0 0 0 0 0 0 0 0 0 0 0 0 0 0 0 0
0 0 0 0 0 0 0 0 0 0 0 0 0 0 0 0 0 0 0 0 0 0 0 0 0 0 0 0 0 0 0 0 0 0 0 0 0 0 0 0 0 0 0 0 0
0 0 0 0 0 0 0 0 0 0 0 0 0 0 0 0 0 0 0 0 0 0 0 0 0 0 0 0 0 0 0 0 0 0 0 0 0 0 0 0 0 0 0 0 0
0 0 0 0 0 0 0 0 0 0 0 0 0 0 0 0 0 0 0 0 0 0 0 0 0 0 0 0 0 0 0 0 0 0 0 0 0 0 0 0 0 0 0 0 0
0 0 0 0 0 0 0 0 0 0 0 0 0 0 0 0 0 0 0 0 0 0 0 0 0 0 0 0 0 0 0 0 0 0 0 0 0 0 0 0 0 0 0 0 0
0 0 0 0 0 0 0 0 0 0 0 0 0 0 0 0 0 0 0 0 0 0 0 0 0 0 0 0 0 0 0 0 0 0 0 0 0 0 0 0 0 0 0 0 0
0 0 0 0 0 0 0 0 0 0 0 0 0 0 0 0 0 0 0 0 0 0 0 0 0 0 0 0 0 0 0 0 0 0 0 0 0 0 0 0 0 0 0 0 0
0 0 0 0 0 0 0 1 0 0 0 0 0 0 0 0 0 0 0 0 0 0 0 0 0 0 0 0 0 0 0 0 0 0 0 0 0 0 0 0 0 0 0 0 0
0 0 0 0 0 0 1 3 0 0 0 0 0 0 0 0 0 0 0 0 0 0 0 0 0 0 0 0 0 0 0 0 0 0 0 0 0 0 0 0 0 0 0 0 0
0 0 0 0 0 0 16 1 0 0 0 0 0 0 0 0 0 0 2 5 1 31 14 4 0 0 0 0 0 0 0 0 0 0 0 0 0 0 0 0 0 0 0 0 0
0 0 0 0 0 0 18 0 0 0 0 0 0 0 0 0 0 0 0 0 0 0 0 9 0 0 0 0 0 2 0 0 1 2 0 0 0 0 0 0 0 0 0 0 0
3 0 0 0 4 0 3 0 0 0 0 0 0 0 0 0 0 0 0 0 0 0 0 3 0 0 0 0 0 0 0 15 8 3 0 0 0 0 0 0 0 0 0 0 0
6 0 0 0 0 3 0 0 0 0 0 0 0 0 0 0 0 0 0 0 0 0 0 0 0 0 0 0 0 0 0 21 23 0 15 31 0 0 0 0 0 0 0 0 0
0 0 5 16 0 4 12 0 0 0 0 0 0 0 0 0 0 0 0 0 0 0 0 0 0 0 0 0 0 0 0 0 7 3 0 1 0 0 0 0 0 0 0 0 0
0 0 0 20 13 2 0 0 6 7 0 0 0 2 2 0 0 7 1 0 0 0 0 0 0 0 0 0 0 0 0 0 12 0 0 0 0 0 0 0 0 0 0 0 0
3 0 0 1 1 2 6 0 3 3 11 16 9 0 1 6 0 0 0 0 0 0 0 0 0 0 0 0 0 0 0 0 0 0 12 0 0 0 0 0 0 0 0 0 0
8 0 0 2 1 0 0 0 0 1 19 11 8 0 15 19 0 0 0 0 0 0 0 0 0 0 0 0 0 0 0 0 0 0 0 0 0 0 0 0 0 0 0 0 0
0 0 4 1 0 0 0 0 4 5 1 3 1 14 13 0 0 7 5 6 8 0 0 0 0 0 0 0 0 0 0 0 0 0 0 0 0 0 0 0 0 0 0 0 0
CIN
0 0 0 0 0 0 0 0 0 0 0 0 0 0 0 0 0 0 0 0 0 0 0 0 0 0 0 0 0 0 0 0 0 0 0 0 0 0 0 -41 -81 -74 -85 -175 -322
0 0 0 0 0 0 0 0 0 0 0 0 0 0 0 0 0 0 0 0 0 0 0 0 0 0 0 0 0 0 0 0 0 0 0 0 0 0 0 -14 -67 -60 -116 -218 -331
0 0 0 0 0 0 0 0 0 0 0 0 0 0 0 0 0 0 0 0 0 0 0 0 0 0 0 0 0 0 0 0 0 0 0 0 0 0 0 0 0 -85 -122 -219 -259
0 0 0 0 0 0 0 0 0 0 0 0 0 0 0 0 0 0 0 0 0 0 0 0 0 0 0 0 0 0 0 0 0 0 0 0 0 0 0 0 0 -102 -106 -198 -209
0 0 0 0 0 0 0 0 0 0 0 0 0 0 0 0 0 0 0 0 0 0 0 0 0 0 0 0 0 0 0 0 0 0 0 0 0 0 0 0 0 -105 -127 -144 -174
0 0 0 0 0 0 0 0 0 0 0 0 0 0 0 0 0 0 0 0 0 0 0 0 0 0 0 0 0 0 0 0 0 0 0 0 0 0 0 0 0 -120 -114 -138 -147
0 0 0 0 0 0 0 0 0 0 0 0 0 0 0 0 0 0 0 0 0 0 0 0 0 0 0 0 0 0 0 0 0 0 0 0 0 0 0 0 0 0 -106 -124 -136
0 0 0 0 0 0 0 0 0 0 0 0 0 0 0 0 0 0 0 0 0 0 0 0 0 0 0 0 0 0 0 0 0 0 0 0 0 0 0 0 0 0 0 -112 -138
0 0 0 0 0 0 0 0 0 0 0 0 0 0 0 0 0 0 0 0 0 0 0 0 0 0 0 0 0 0 0 0 0 0 0 0 0 0 0 0 0 0 0 0 -139
0 0 0 0 0 0 0 0 0 0 0 -1 0 0 0 0 0 0 0 0 0 0 0 0 0 0 0 0 0 0 0 0 0 0 0 0 0 0 0 0 0 0 0 0 0
0 0 0 0 0 0 0 0 0 0 0 0 0 0 0 0 0 0 0 0 0 0 0 0 0 0 0 0 0 0 0 0 0 0 0 0 0 0 0 0 0 0 0 0 0
0 0 0 0 0 0 0 0 0 0 0 0 0 0 0 0 0 0 0 0 0 0 0 0 0 0 0 0 0 0 0 0 0 0 0 0 0 0 0 0 0 0 0 0 0
0 0 0 0 0 0 0 0 0 0 0 0 0 0 0 0 0 0 0 0 0 0 0 0 0 0 0 0 0 0 0 0 0 0 0 0 0 0 0 0 0 0 0 0 0
0 0 0 0 0 0 0 0 0 0 0 0 0 0 0 0 0 0 0 0 0 0 0 0 0 0 0 0 0 0 0 0 0 0 0 0 0 0 0 0 0 0 0 0 0
0 0 0 0 0 0 0 0 0 0 0 0 0 0 0 0 0 0 0 0 0 0 0 0 0 0 0 0 0 0 0 0 0 0 0 0 0 0 0 0 0 0 0 0 0
0 0 0 0 0 0 0 0 0 0 0 0 0 0 0 0 0 0 0 0 0 0 0 0 0 0 0 0 0 0 0 0 0 0 0 0 0 0 0 0 0 0 0 0 0
0 0 0 0 0 0 0 -15 0 0 0 0 0 0 0 0 0 0 0 0 0 0 0 0 0 0 0 0 0 0 0 0 0 0 0 0 0 0 0 0 0 0 0 0 0
0 0 0 0 0 0 -28 -8 0 0 0 0 0 0 0 0 0 0 0 0 0 0 0 0 0 0 0 0 0 0 0 0 0 0 0 0 0 0 0 0 0 0 0 0 0
0 0 0 0 0 0 -5 0 0 0 0 0 0 0 0 0 0 0 -19 -10 -4 -32 -13 -3 0 0 0 0 0 0 0 0 -11 0 0 0 0 0 0 0 0 0 0 0 0
0 0 0 0 0 -7 -1 0 0 0 0 0 0 0 0 0 0 0 0 0 0 0 0 -5 -1 0 0 0 0 -18 -1 0 -10 -1 0 0 0 0 0 0 0 0 0 0 0
-13 -1 0 0 -7 -4 -5 -11 0 0 0 0 0 0 0 0 0 0 0 0 0 0 0 -12 0 0 0 0 0 0 -4 -14 -7 -27 -3 0 0 0 0 0 0 0 0 0 0
-3 0 0 0 0 -1 0 -12 -19 0 0 0 0 0 0 0 0 0 0 0 0 0 0 -9 0 0 0 0 0 0 0 -40 -3 -6 -11 -2 0 0 0 0 0 0 0 0 0
0 -3 -22 -4 0 -1 -2 0 0 0 0 0 0 0 0 0 0 0 0 0 0 0 0 0 0 0 0 0 0 0 0 0 -5 0 0 0 0 0 0 0 0 0 0 0 0
0 0 0 -1 -7 -4 -3 -2 0 -3 0 0 -2 -4 -1 0 0 0 -1 0 0 0 0 0 0 0 0 0 0 0 0 0 -1 0 0 0 0 0 0 0 0 0 0 0 0
-8 0 0 -1 0 0 0 -1 -10 -1 0 -6 -3 0 -1 0 0 0 0 0 0 0 0 0 0 0 0 0 0 -2 0 0 0 0 -1 0 0 0 0 0 0 0 0 0 0
-2 0 0 -1 0 -3 0 0 0 -1 -1 -2 0 0 -7 0 0 0 0 0 0 0 0 0 -5 -1 0 0 0 0 0 0 0 0 0 0 0 0 0 0 0 0 0 0 0
-2 0 -2 0 0 0 0 0 -2 -3 -1 -1 -1 -1 -1 0 0 -10 -7 -7 -4 -3 0 -2 0 0 0 0 0 0 0 0 0 0 0 0 0 0 0 0 0 0 0 0 0
Wind_Speed
21 21 21 22 23 22 23 25 25 27 28 28 28 29 30 32 31 26 26 21 19 21 21 22 18 18 17 15 15 14 11 10 12 16 21 19 17 15 14 11 9 9 10 13 17
25 24 24 24 26 23 24 25 26 27 28 28 29 29 31 32 27 29 22 24 25 23 23 21 21 20 19 16 17 11 12 12 12 21 23 21 19 18 12 10 13 11 10 16 16
27 26 26 25 28 28 26 27 28 28 29 29 29 30 31 30 25 20 16 19 22 22 23 22 21 20 19 19 17 17 17 22 33 29 27 23 21 20 14 12 9 6 9 14 15
26 26 26 27 27 30 29 29 31 30 31 30 30 30 33 23 27 18 16 18 21 20 21 22 19 20 21 21 20 24 26 26 27 27 25 24 22 25 18 14 13 4 9 11 11
25 26 26 27 27 29 29 30 31 32 32 31 31 29 27 26 26 22 22 22 22 21 22 22 23 23 25 24 27 31 29 27 31 30 24 23 24 22 30 25 16 3 6 9 11
24 25 25 26 27 28 28 29 31 33 33 33 32 30 27 37 25 22 24 24 22 22 24 23 24 27 29 29 28 28 35 36 31 34 29 26 26 25 26 27 18 3 4 8 12
23 25 25 27 28 29 29 30 32 34 34 34 31 30 33 40 25 29 32 26 23 24 25 23 25 26 28 31 29 31 37 36 34 30 32 30 34 29 30 26 26 9 5 8 13
22 24 25 26 28 29 29 31 33 33 33 32 29 28 40 33 30 36 33 31 27 26 26 27 26 30 29 30 31 33 32 38 32 29 30 28 38 40 38 30 28 21 9 10 13
21 24 24 26 27 29 30 33 33 30 29 27 25 27 41 31 34 33 35 34 30 29 29 27 28 29 31 33 37 33 38 35 39 30 31 29 39 40 38 32 34 33 27 13 16
20 22 23 25 26 28 30 34 29 26 25 23 26 29 32 28 24 27 28 30 32 29 28 27 27 33 33 33 39 38 40 40 40 35 34 44 47 44 44 40 38 36 30 24 16
19 21 22 23 24 26 26 22 25 27 27 29 27 30 28 26 25 25 23 25 25 30 31 27 32 37 34 36 36 38 40 44 42 37 39 44 48 44 45 40 40 35 27 28 22
19 20 22 24 23 25 23 22 22 23 34 30 35 39 39 33 34 29 24 23 25 32 30 31 40 36 36 35 37 38 43 51 50 42 41 50 54 50 45 46 42 39 32 23 21
19 20 22 23 23 23 20 22 25 21 29 29 25 29 29 25 36 35 25 26 27 31 30 38 40 36 34 36 39 42 43 49 49 43 44 46 55 53 46 39 39 40 37 35 23
21 21 21 23 21 20 19 25 21 16 27 25 21 22 19 20 30 24 25 27 29 34 30 37 44 43 39 39 35 46 39 45 47 44 48 33 57 54 45 45 41 38 35 32 25
22 22 21 19 20 19 21 28 24 19 27 19 16 12 13 16 23 23 19 26 32 29 27 36 35 37 44 46 39 48 44 45 48 47 48 46 41 67 43 44 42 38 37 36 32
22 23 22 20 19 21 26 25 17 20 24 21 14 16 16 17 19 21 17 19 21 29 36 39 37 38 35 38 39 42 46 46 45 43 52 57 42 69 57 49 49 44 40 39 39
23 23 21 20 19 23 23 18 18 21 20 17 18 16 18 16 18 17 17 16 24 28 35 38 44 43 41 45 41 37 43 51 52 55 61 50 44 58 45 40 42 46 46 45 45
22 22 22 20 22 22 18 16 19 19 20 22 20 21 17 17 21 18 18 19 19 22 28 33 39 28 29 37 44 44 39 44 55 53 55 51 53 56 57 49 44 47 52 50 48
17 20 21 19 16 16 15 20 17 17 18 23 23 19 18 19 21 20 19 21 18 15 26 30 36 26 31 35 34 31 40 45 52 54 56 55 53 50 63 63 58 57 51 52 54
15 17 22 15 9 13 17 18 19 17 21 21 20 20 21 24 22 23 21 18 19 21 29 29 45 28 31 32 35 35 34 42 37 59 64 57 54 55 58 49 46 52 56 50 43
13 17 17 6 8 17 19 19 21 30 25 21 20 25 23 24 25 26 24 26 24 30 31 28 30 38 31 29 32 32 34 32 37 37 49 57 54 49 64 58 58 57 56 57 50
13 19 16 4 16 19 21 19 22 25 27 25 27 24 26 28 31 31 29 31 35 33 35 28 33 45 42 37 37 36 40 34 40 42 41 46 56 47 55 55 51 49 48 46 46
16 18 14 10 21 22 22 24 28 26 26 24 26 25 26 30 33 31 30 32 31 31 29 34 32 48 49 32 23 23 29 29 32 33 40 45 43 48 52 54 54 57 58 57 55
16 21 19 17 21 23 24 27 25 23 27 29 32 33 37 39 35 37 41 34 39 38 35 34 33 38 51 44 42 49 46 40 37 41 45 49 55 57 64 54 53 53 53 53 49
17 21 19 22 27 27 23 22 22 25 26 25 28 29 31 34 36 39 40 39 35 35 28 28 35 36 42 41 40 45 48 46 43 46 49 57 50 51 57 58 53 54 53 52 50
19 21 21 24 23 22 23 27 30 31 27 28 29 30 31 34 33 40 40 38 36 35 35 28 38 39 53 48 46 53 52 50 49 50 48 48 55 46 52 58 52 52 53 51 49
20 21 23 26 25 27 29 30 29 28 32 32 33 35 34 34 35 38 38 38 36 38 38 36 38 40 54 45 49 57 51 45 48 46 46 50 50 54 50 56 53 53 54 53 51
Wind_Direction
287 287 289 293 294 295 294 294 295 291 293 296 297 296 297 294 294 291 281 278 282 284 288 285 292 293 295 294 290 294 307 318 338 339 286 310 332 338 351 48 32 45 84 110 118
285 286 287 288 288 292 295 295 296 295 292 294 294 295 295 298 298 285 287 275 274 280 281 286 283 289 288 285 290 300 295 302 320 303 285 303 314 325 348 358 346 19 60 117 122
280 286 287 286 287 287 291 292 293 292 292 293 290 296 298 299 299 292 298 286 282 281 277 278 283 287 285 284 284 286 275 282 261 282 286 299 295 298 349 340 354 36 104 128 131
282 285 287 287 288 287 288 288 288 291 290 293 294 295 294 300 281 300 303 296 288 287 281 275 278 279 282 280 282 279 278 281 285 292 299 296 297 286 314 340 346 66 129 128 136
282 285 287 287 287 288 290 289 292 290 288 291 293 293 291 286 281 287 294 291 291 286 281 276 271 275 275 279 284 274 274 282 279 288 298 297 296 302 273 293 336 44 134 152 154
283 284 287 286 289 289 291 291 292 288 285 285 288 289 286 274 286 289 290 284 287 286 280 276 275 275 277 274 277 280 278 276 281 279 286 291 294 295 289 289 319 341 174 171 170
287 282 286 284 285 286 289 288 287 283 282 283 287 282 277 268 286 278 280 281 284 282 279 280 282 277 279 273 279 280 278 278 277 280 277 288 282 286 284 296 295 305 249 204 189
288 285 287 290 287 289 291 290 286 286 285 283 286 281 272 276 281 271 277 277 279 278 279 281 283 277 274 277 277 278 280 274 276 280 282 286 279 270 273 289 291 293 269 223 210
291 287 289 290 293 293 291 288 286 290 289 286 286 281 274 283 272 276 268 269 277 277 279 280 280 274 275 271 271 274 270 276 275 280 281 282 282 273 275 287 286 286 286 249 227
290 290 291 289 293 296 296 289 290 293 291 289 282 282 277 279 290 279 278 270 269 277 276 271 275 269 269 265 264 269 271 272 273 276 280 275 278 278 272 282 285 285 286 285 257
292 293 292 292 295 297 304 299 290 284 282 274 277 274 281 293 292 283 291 269 270 267 265 267 264 261 263 267 273 274 273 272 274 278 279 277 278 279 276 279 283 286 280 284 290
295 294 290 290 295 294 300 294 295 299 283 284 276 273 276 286 278 280 286 273 270 265 263 266 260 265 272 271 270 271 271 270 274 278 280 275 274 277 278 277 279 283 279 279 283
296 295 293 292 293 293 295 298 298 308 290 293 288 282 279 278 271 271 279 274 273 268 263 262 268 268 270 271 269 268 269 271 274 281 280 281 275 274 277 281 282 281 283 280 272
290 292 295 294 293 297 294 300 308 319 292 293 295 297 293 284 281 277 273 274 271 271 266 270 267 269 269 269 269 269 272 275 276 279 276 282 275 272 276 278 278 281 281 286 275
286 288 291 295 292 291 297 293 297 311 284 302 305 320 317 288 290 298 280 270 270 271 270 268 276 273 266 266 273 272 276 275 276 276 277 274 276 262 275 277 278 279 281 281 284
281 279 284 286 286 289 293 293 307 293 282 295 307 305 307 299 296 298 300 276 287 275 273 273 277 279 275 277 279 281 279 275 276 276 270 269 274 264 268 275 278 281 282 281 282
279 278 280 282 277 289 289 288 291 284 296 298 298 301 302 308 305 302 296 282 277 281 276 278 273 274 277 277 278 280 276 273 271 267 266 271 275 269 277 280 281 281 281 281 282
277 278 278 278 276 286 289 284 282 288 288 298 295 298 299 306 302 301 300 295 288 290 290 284 279 285 285 276 276 274 274 270 270 270 273 273 269 268 271 278 282 283 280 280 282
291 284 279 280 283 287 282 274 285 288 303 300 296 296 299 302 304 309 296 297 309 299 291 289 280 292 286 286 286 283 271 273 274 274 275 272 274 275 270 272 277 278 284 285 284
296 293 278 287 288 281 274 275 283 291 303 304 295 303 294 297 299 304 299 320 309 332 309 296 281 292 291 292 283 281 285 278 276 270 270 272 272 272 272 281 283 279 274 281 289
301 290 298 282 281 271 271 282 284 271 291 298 298 295 298 297 298 298 296 298 316 311 316 305 293 289 296 290 288 290 283 282 279 277 275 274 273 277 271 277 278 278 279 274 282
298 282 308 267 267 274 270 283 288 286 289 292 291 295 294 298 294 294 293 294 303 310 300 306 297 284 286 290 291 288 283 289 277 278 278 279 276 282 283 283 284 285 286 284 285
291 284 308 282 271 273 284 280 279 286 287 292 289 293 297 295 296 295 297 300 301 306 304 301 294 287 284 291 300 293 296 296 291 288 279 283 284 283 290 288 288 284 282 279 281
291 281 284 279 282 277 278 281 286 294 284 284 286 289 290 288 290 291 291 297 295 295 298 300 288 284 279 284 289 285 287 290 290 281 284 283 287 285 280 290 291 292 289 284 282
287 284 288 283 277 275 284 291 289 289 288 290 292 287 290 291 293 292 294 294 296 295 296 299 288 289 287 290 291 289 285 285 283 283 284 285 289 290 283 285 290 292 294 290 282
280 284 287 284 288 286 284 286 283 284 289 291 287 293 292 291 292 293 295 296 294 297 295 294 288 291 285 288 290 287 285 285 284 284 286 287 286 291 288 283 290 290 290 291 285
281 288 287 285 288 286 285 286 289 293 290 286 287 290 292 293 292 293 293 293 293 293 291 289 289 289 285 291 291 284 285 287 286 285 286 284 288 290 292 285 287 289 292 286 283